GW3823 Weather Reports


Display with metric or nautical units.
time (UTC)temp
F
wind
direction
speed
MPH
gust
MPH
rain 1hr
in
rain 24hr
in
rain mn
in
humidity
%
barometer
mb
20260901233805 75 228 2.0 9.0 0.00 0.17 0.07 38 1022.9
20260901233306 75 166 2.0 10.0 0.00 0.17 0.07 37 1014.0
20260901232805 75 240 3.0 9.0 0.00 0.17 0.07 36 1014.1
20260901232306 75 286 3.0 10.0 0.00 0.17 0.07 39 1014.0
20260901231804 75 158 5.0 10.0 0.00 0.17 0.07 39 1019.1
20260901231305 75 171 5.0 9.0 0.00 0.17 0.07 39 1013.9
20260901230805 75 174 3.0 8.0 0.00 0.17 0.07 38 1014.1
20260901230304 75 178 5.0 12.0 0.00 0.18 0.07 42 1014.2
20260901225805 73 199 4.0 13.0 0.00 0.20 0.07 40 1018.7
20260901225306 73 164 3.0 13.0 0.00 0.20 0.07 40 1014.3
20260901224805 73 161 5.0 15.0 0.00 0.20 0.07 42 1014.4
20260901223805 73 161 0.0 7.0 0.00 0.20 0.07 41 1014.5
20260901222805 73 180 2.0 13.0 0.00 0.20 0.07 42 1014.5
20260901222306 73 160 7.0 18.0 0.00 0.20 0.07 41 1014.6
20260901221804 73 146 7.0 17.0 0.00 0.20 0.07 43 1014.6
20260901221305 73 152 10.0 17.0 0.00 0.20 0.07 41 1014.6
20260901220805 73 156 10.0 20.0 0.00 0.20 0.07 42 1014.6
20260901220304 73 156 6.0 15.0 0.00 0.20 0.07 41 1014.7
20260901215805 70 207 4.0 10.0 0.00 0.21 0.07 41 1014.5
20260901215306 72 166 9.0 10.0 0.00 0.21 0.07 41 1017.9
20260901214804 72 154 5.0 14.0 0.00 0.21 0.07 41 1014.9
20260901214304 72 179 4.0 8.0 0.00 0.21 0.07 41 1019.9
20260901213804 72 151 5.0 12.0 0.00 0.21 0.07 44 1014.9
20260901212805 72 239 2.0 8.0 0.00 0.21 0.07 43 1015.1
20260901212306 72 178 3.0 5.0 0.00 0.21 0.07 46 1019.2
20260901211805 72 261 1.0 6.0 0.00 0.21 0.07 47 1015.4
20260901211305 72 135 5.0 7.0 0.00 0.21 0.07 45 1021.0
20260901210805 72 195 3.0 8.0 0.00 0.21 0.07 49 1015.5
20260901210304 72 186 6.0 9.0 0.00 0.21 0.07 50 1015.7
20260901205805 69 27 5.0 9.0 0.00 0.21 0.07 51 1015.7
20260901205306 69 352 6.0 8.0 0.00 0.21 0.07 55 1015.8
20260901204804 69 44 5.0 8.0 0.00 0.21 0.07 61 1016.0
20260901204305 69 44 5.0 8.0 0.00 0.21 0.07 61 1016.1
20260901203804 69 44 5.0 8.0 0.00 0.21 0.07 61 1016.1
20260901202804 69 62 1.0 5.0 0.00 0.21 0.07 55 1016.1
20260901202306 69 74 3.0 8.0 0.00 0.21 0.07 57 1016.2
20260901201804 69 170 6.0 15.0 0.00 0.21 0.07 60 1016.1
20260901201305 69 164 9.0 16.0 0.00 0.21 0.07 60 1016.5
20260901200805 69 148 9.0 16.0 0.00 0.21 0.07 60 1016.1
20260901195807 67 139 5.0 8.0 0.01 0.21 0.07 60 1016.3
20260901194804 67 206 2.0 10.0 0.01 0.21 0.07 57 1016.2
20260901193804 67 225 4.0 7.0 0.01 0.21 0.07 55 1016.1
20260901192804 67 41 5.0 8.0 0.01 0.21 0.07 57 1020.7
20260901192306 67 29 3.0 9.0 0.01 0.21 0.07 56 1016.2
20260901190305 67 181 3.0 12.0 0.01 0.21 0.07 65 1016.6
20260901185804 59 162 5.0 12.0 0.01 0.20 0.06 69 1016.7
20260901185306 58 173 3.0 17.0 0.01 0.20 0.06 66 1016.7
20260901184305 58 117 6.0 15.0 0.01 0.20 0.06 70 1016.6
20260901183805 59 85 6.0 33.0 0.01 0.20 0.06 66 1016.6
20260901182804 64 135 4.0 18.0 0.01 0.20 0.06 52 1015.9
20260901181804 64 195 4.0 15.0 0.01 0.20 0.06 53 1015.8
20260901181304 64 182 7.0 13.0 0.01 0.20 0.06 63 1015.8
20260901180304 64 233 6.0 15.0 0.01 0.20 0.06 53 1025.8
20260901175804 65 175 7.0 15.0 0.00 0.19 0.05 54 1015.9
20260901175305 65 149 11.0 15.0 0.00 0.19 0.05 54 1016.2
20260901174304 65 142 9.0 13.0 0.00 0.19 0.05 56 1016.0
20260901173805 65 152 6.0 7.0 0.00 0.19 0.05 57 1016.0
20260901173305 65 152 6.0 13.0 0.00 0.19 0.05 56 1021.5
20260901172804 65 198 4.0 13.0 0.00 0.19 0.05 58 1015.9
20260901172305 65 165 3.0 12.0 0.00 0.19 0.05 60 1021.3
20260901171805 65 189 8.0 12.0 0.00 0.19 0.05 61 1016.0
20260901170805 65 152 15.0 17.0 0.00 0.19 0.05 57 1015.9
20260901170304 65 180 5.0 16.0 0.00 0.19 0.05 60 1024.4
20260901165804 63 151 9.0 14.0 0.00 0.19 0.05 62 1015.9
20260901165306 61 189 3.0 8.0 0.00 0.19 0.05 66 1026.0
20260901164805 62 212 5.0 8.0 0.00 0.19 0.05 64 1016.0
20260901164304 63 118 5.0 8.0 0.00 0.19 0.05 62 1021.6
20260901163805 63 118 5.0 8.0 0.00 0.19 0.05 70 1015.8
20260901162804 61 85 3.0 5.0 0.00 0.19 0.05 71 1015.8
20260901162306 62 74 3.0 6.0 0.00 0.19 0.05 65 1015.9
20260901161804 60 39 4.0 7.0 0.00 0.19 0.05 73 1015.9
20260901160804 59 142 3.0 7.0 0.00 0.19 0.05 76 1016.1
20260901160305 59 148 3.0 7.0 0.00 0.19 0.05 77 1016.2
20260901155804 57 150 5.0 8.0 0.00 0.19 0.05 80 1016.0
20260901155306 58 152 5.0 7.0 0.00 0.19 0.05 77 1016.1
20260901154804 58 198 2.0 7.0 0.00 0.19 0.05 77 1016.1
20260901154304 58 165 4.0 7.0 0.00 0.19 0.05 76 1016.0
20260901153805 57 59 1.0 2.0 0.00 0.19 0.05 75 1016.0
20260901153304 57 129 1.0 6.0 0.00 0.19 0.05 75 1016.1
20260901152805 56 352 3.0 8.0 0.00 0.19 0.05 78 1016.1
20260901152306 57 5 3.0 8.0 0.00 0.19 0.05 77 1016.0
20260901151804 56 55 5.0 7.0 0.00 0.19 0.05 80 1016.2
20260901151304 54 223 1.0 6.0 0.00 0.19 0.05 83 1016.1
20260901150304 53 42 2.0 8.0 0.00 0.19 0.05 85 1016.3
20260901145805 52 56 5.0 8.0 0.00 0.19 0.05 86 1016.1
20260901145306 52 31 3.0 7.0 0.00 0.19 0.05 89 1016.2
20260901144805 51 43 6.0 7.0 0.00 0.19 0.05 89 1016.4
20260901144304 51 43 6.0 7.0 0.00 0.19 0.05 90 1016.4
20260901143304 51 46 3.0 6.0 0.00 0.19 0.05 92 1016.3
20260901142804 50 19 4.0 6.0 0.00 0.19 0.05 94 1016.5
20260901142306 49 24 2.0 3.0 0.00 0.19 0.05 94 1026.9
20260901141805 50 146 1.0 5.0 0.00 0.19 0.05 94 1016.6
20260901141304 49 143 4.0 6.0 0.00 0.19 0.05 94 1022.0
20260901140804 49 124 3.0 5.0 0.00 0.19 0.05 94 1016.6
20260901140304 49 180 2.0 3.0 0.00 0.19 0.05 94 1021.4
20260901135805 48 167 3.0 3.0 0.00 0.19 0.05 94 1016.6
20260901135305 48 54 3.0 3.0 0.00 0.19 0.05 93 1021.1
20260901134304 48 54 3.0 3.0 0.00 0.19 0.05 93 1016.7
20260901133804 49 54 3.0 5.0 0.00 0.19 0.05 93 1016.7
20260901133304 54 55 5.0 5.0 0.00 0.19 0.05 96 1016.4
20260901132307 54 55 5.0 5.0 0.00 0.19 0.05 96 1026.8
20260901131804 54 55 5.0 5.0 0.00 0.19 0.05 96 1020.8
20260901131304 54 55 5.0 5.0 0.00 0.19 0.05 96 1016.4
20260901130804 54 55 5.0 5.0 0.00 0.19 0.05 96 1019.2
20260901130304 54 55 5.0 5.0 0.00 0.19 0.05 96 1016.1
20260901125804 55 55 5.0 5.0 0.00 0.19 0.05 93 1024.2
20260901124805 55 55 5.0 5.0 0.00 0.19 0.05 93 1026.1
20260901124305 55 55 5.0 5.0 0.00 0.19 0.05 93 1015.9
20260901123805 55 55 5.0 5.0 0.00 0.19 0.05 93 1025.2
20260901123305 55 55 5.0 5.0 0.00 0.19 0.05 93 1015.9
20260901122804 55 55 5.0 5.0 0.00 0.19 0.05 93 1015.9
20260901122306 55 55 5.0 5.0 0.00 0.19 0.05 93 1015.7
20260901121804 55 55 5.0 5.0 0.00 0.19 0.05 93 1022.1
20260901121304 55 55 5.0 5.0 0.00 0.19 0.05 93 1015.9
20260901120804 55 55 5.0 5.0 0.00 0.19 0.05 93 1015.7
20260901120304 55 55 5.0 5.0 0.00 0.19 0.05 93 1015.7
20260901115804 55 55 5.0 5.0 0.00 0.19 0.05 96 1015.7
20260901115306 55 55 5.0 5.0 0.00 0.19 0.05 96 1015.6
20260901114804 55 55 5.0 5.0 0.00 0.19 0.05 96 1015.6
20260901114304 55 55 5.0 5.0 0.00 0.19 0.05 96 1015.6
20260901113804 55 55 5.0 5.0 0.00 0.19 0.05 96 1015.4
20260901113303 55 55 5.0 5.0 0.00 0.19 0.05 96 1021.4
20260901112804 55 55 5.0 5.0 0.00 0.19 0.05 96 1015.2
20260901112306 55 55 5.0 5.0 0.00 0.19 0.05 96 1015.1
20260901111804 55 55 5.0 5.0 0.00 0.19 0.05 96 1015.3
20260901110804 55 55 5.0 5.0 0.00 0.19 0.05 96 1020.5
20260901110304 55 55 5.0 5.0 0.00 0.19 0.05 96 1015.2
20260901105804 55 55 5.0 5.0 0.00 0.19 0.05 96 1015.4
20260901104804 55 55 5.0 5.0 0.00 0.19 0.05 96 1020.5
20260901103804 55 55 5.0 5.0 0.00 0.19 0.05 96 1020.1
20260901103304 55 55 5.0 5.0 0.00 0.19 0.05 96 1015.2
20260901102804 55 55 5.0 5.0 0.00 0.19 0.05 96 1015.2
20260901101804 55 55 5.0 5.0 0.00 0.19 0.05 96 1015.2
20260901101305 55 55 5.0 5.0 0.00 0.19 0.05 96 1015.2
20260901100804 55 55 5.0 5.0 0.00 0.19 0.05 96 1015.4
20260901095804 55 55 5.0 5.0 0.00 0.19 0.05 93 1015.2
20260901095306 55 55 5.0 5.0 0.00 0.19 0.05 93 1020.0
20260901094804 55 55 5.0 5.0 0.00 0.19 0.05 93 1015.1
20260901094304 55 55 5.0 5.0 0.00 0.19 0.05 93 1015.3
20260901093305 55 55 5.0 5.0 0.00 0.19 0.05 93 1015.3
20260901092804 55 55 5.0 5.0 0.00 0.19 0.05 93 1015.1
20260901092305 55 55 5.0 5.0 0.00 0.19 0.05 93 1015.2
20260901091804 55 55 5.0 5.0 0.00 0.19 0.05 96 1015.4
20260901091304 55 55 5.0 5.0 0.00 0.19 0.05 96 1015.3
20260901090804 55 55 5.0 5.0 0.00 0.19 0.05 96 1015.4
20260901090303 55 55 5.0 5.0 0.00 0.19 0.05 96 1015.5
20260901085804 56 55 5.0 5.0 0.00 0.19 0.05 93 1015.5
20260901085306 56 55 5.0 5.0 0.00 0.19 0.05 93 1015.6
20260901084304 56 55 5.0 5.0 0.00 0.19 0.05 93 1015.7
20260901083804 56 55 5.0 5.0 0.00 0.19 0.05 93 1015.5
20260901083304 56 55 5.0 5.0 0.00 0.19 0.05 93 1015.5
20260901082804 56 55 5.0 5.0 0.00 0.19 0.05 93 1019.7
20260901081804 56 55 5.0 5.0 0.00 0.19 0.05 93 1026.1
20260901081306 56 55 5.0 5.0 0.00 0.19 0.05 93 1015.7
20260901080805 56 55 5.0 5.0 0.00 0.19 0.05 93 1015.6
20260901080305 56 55 5.0 5.0 0.00 0.19 0.05 93 1015.7
20260901075806 57 55 5.0 5.0 0.00 0.19 0.05 96 1015.5
20260901075307 57 55 5.0 5.0 0.00 0.19 0.05 96 1015.6
20260901074805 57 55 5.0 5.0 0.00 0.19 0.05 96 1015.6
20260901074305 57 55 5.0 5.0 0.00 0.19 0.05 96 1015.8
20260901073805 57 55 5.0 5.0 0.00 0.19 0.05 96 1015.8
20260901073305 57 55 5.0 5.0 0.00 0.19 0.05 96 1015.9
20260901072806 57 55 5.0 5.0 0.00 0.19 0.05 96 1015.9
20260901072309 57 55 5.0 5.0 0.00 0.19 0.05 96 1016.0
20260901071805 57 55 5.0 5.0 0.00 0.19 0.05 96 1016.0
20260901071305 57 55 5.0 5.0 0.00 0.19 0.05 96 1025.4
20260901070805 57 55 5.0 5.0 0.00 0.19 0.05 96 1016.1
20260901070306 57 55 5.0 5.0 0.00 0.19 0.05 96 1020.8
20260901065805 57 55 5.0 5.0 0.03 0.19 0.05 93 1016.0
20260901065306 57 55 5.0 5.0 0.03 0.19 0.05 93 1021.2
20260901064805 57 55 5.0 5.0 0.03 0.19 0.05 93 1016.1
20260901064306 57 55 5.0 5.0 0.03 0.19 0.05 93 1020.7
20260901063305 57 55 5.0 5.0 0.03 0.19 0.05 93 1021.0
20260901062805 57 55 5.0 5.0 0.03 0.19 0.05 93 1015.6
20260901062309 52 55 5.0 5.0 0.03 0.19 0.05 93 1015.8
20260901061805 53 55 5.0 5.0 0.03 0.19 0.05 94 1015.9
20260901061305 52 55 5.0 5.0 0.03 0.19 0.05 94 1015.8
20260901060806 53 55 5.0 5.0 0.03 0.19 0.05 94 1015.9
20260901060306 52 55 5.0 5.0 0.04 0.19 0.05 94 1015.9
20260901055805 52 55 5.0 5.0 0.03 0.16 0.02 94 1025.7
20260901055306 52 55 5.0 5.0 0.03 0.16 0.02 94 1015.9
20260901054805 52 55 5.0 5.0 0.04 0.16 0.02 94 1015.8
20260901053805 52 55 5.0 5.0 0.04 0.18 0.02 94 1016.0
20260901053305 52 55 5.0 5.0 0.04 0.18 0.02 94 1016.0
20260901052805 52 55 5.0 5.0 0.04 0.18 0.02 94 1016.2
20260901052307 52 55 3.0 5.0 0.04 0.18 0.02 94 1016.1
20260901051805 52 83 2.0 2.0 0.04 0.18 0.02 94 1016.0
20260901051305 52 83 2.0 2.0 0.04 0.18 0.02 94 1016.2
20260901050306 52 83 2.0 2.0 0.03 0.17 0.01 94 1016.0
20260901045805 54 83 2.0 2.0 0.03 0.16 0.16 93 1026.4
20260901045306 57 83 2.0 2.0 0.02 0.15 0.15 91 1026.4
20260901044305 59 83 2.0 2.0 0.01 0.14 0.14 89 1026.4
20260901043805 56 83 2.0 2.0 0.01 0.14 0.14 92 1016.2
20260901043305 53 183 1.0 1.0 0.01 0.14 0.14 93 1026.4
20260901042805 54 183 1.0 1.0 0.01 0.14 0.14 93 1016.1
20260901042306 53 183 1.0 1.0 0.01 0.14 0.14 94 1016.0
20260901041805 54 183 1.0 1.0 0.01 0.14 0.14 93 1016.0
20260901041305 53 183 1.0 5.0 0.01 0.14 0.14 94 1015.9
20260901040805 59 51 3.0 5.0 0.01 0.14 0.14 89 1021.2
20260901040305 59 51 3.0 5.0 0.01 0.14 0.14 87 1015.5
20260901035805 61 51 3.0 5.0 0.00 0.21 0.13 77 1024.4
20260901035306 61 51 3.0 5.0 0.00 0.21 0.13 77 1015.5
20260901034805 61 51 3.0 5.0 0.00 0.21 0.13 77 1020.1
20260901033805 61 51 3.0 5.0 0.00 0.21 0.13 77 1015.4
20260901033305 53 51 3.0 5.0 0.00 0.21 0.13 92 1015.3
20260901032805 54 51 3.0 5.0 0.00 0.21 0.13 92 1015.1
20260901032306 53 51 3.0 5.0 0.00 0.21 0.13 92 1015.4
20260901030805 54 51 3.0 5.0 0.00 0.27 0.13 92 1015.5
20260901030305 55 51 3.0 5.0 0.00 0.29 0.13 83 1015.3
20260901025306 55 51 3.0 5.0 0.00 0.31 0.13 92 1025.6
20260901024805 54 51 3.0 5.0 0.00 0.31 0.13 92 1015.5
20260901023805 54 51 3.0 5.0 0.00 0.31 0.13 72 1015.5
20260901023305 55 26 3.0 3.0 0.01 0.31 0.13 92 1015.3
20260901022306 55 26 3.0 3.0 0.02 0.31 0.13 92 1015.6
20260901021804 54 26 3.0 3.0 0.04 0.31 0.13 82 1015.6
20260901021305 55 26 3.0 3.0 0.05 0.31 0.13 92 1015.7
20260901020806 56 104 1.0 2.0 0.06 0.31 0.13 86 1015.6
20260901020305 57 104 1.0 2.0 0.06 0.31 0.13 86 1015.7
20260901015805 56 104 1.0 2.0 0.06 0.32 0.13 86 1015.9
20260901015306 57 104 1.0 2.0 0.06 0.32 0.13 86 1015.9
20260901014805 56 104 1.0 2.0 0.06 0.32 0.13 86 1020.5
20260901014304 57 104 1.0 2.0 0.06 0.32 0.13 72 1016.0
20260901013805 57 104 1.0 2.0 0.06 0.32 0.13 86 1016.2
20260901013305 57 104 1.0 2.0 0.05 0.31 0.12 72 1015.8
20260901012804 57 104 1.0 2.0 0.05 0.31 0.12 86 1016.5
20260901012306 57 104 1.0 2.0 0.04 0.30 0.11 86 1024.7
20260901011806 56 104 1.0 3.0 0.02 0.28 0.09 86 1016.5
20260901010805 57 172 1.0 1.0 0.00 0.26 0.07 80 1016.5
20260901010305 58 172 1.0 1.0 0.00 0.26 0.07 80 1024.5
20260901005805 57 172 1.0 1.0 0.01 0.26 0.07 80 1016.2
20260901005307 58 172 1.0 5.0 0.01 0.26 0.07 80 1025.6
20260901004305 58 167 2.0 6.0 0.01 0.26 0.07 82 1021.0
20260901003805 57 159 5.0 7.0 0.01 0.26 0.07 81 1016.1
20260901003305 58 141 4.0 6.0 0.01 0.26 0.07 81 1016.0
20260901002804 57 172 2.0 6.0 0.01 0.26 0.07 81 1016.1
20260901002306 58 180 2.0 3.0 0.01 0.26 0.07 77 1016.2
20260901001804 58 141 2.0 3.0 0.01 0.26 0.07 73 1016.1
20260901001305 58 123 1.0 3.0 0.01 0.26 0.07 77 1016.1
20260901000806 57 85 2.0 3.0 0.01 0.26 0.07 78 1019.6
20260901000304 58 23 1.0 5.0 0.02 0.26 0.07 77 1016.0
20260831235805 57 64 3.0 5.0 0.03 0.25 0.06 76 1020.0
20260831235306 58 34 3.0 5.0 0.03 0.25 0.06 77 1015.9
20260831234805 58 213 2.0 5.0 0.03 0.25 0.06 76 1020.0